When you browse on this site, cookies collect data to enhance your experience and personalize the content and advertising you see.
Visit our Privacy Policy to learn more. By continuing to use the site, you agree to this use of cookies and data.
  • In Romania
  • List of Countries
  • For 7 days
  • Water Temperature
  • Satellite Maps
  • Weather Map
  • Weather Widgets
  • user-avatar
    Login

    Hourly Weather Ascea

    Today, 22 April, Monday

    Time Temperature Precipitation Wind Pressure Humidity
    00:00 +14°C° 0 mm 3 mps 750 mmHg 73%
    01:00 +14°C° 0 mm 4 mps 750 mmHg 70%
    02:00 +14°C° 0 mm 4 mps 749 mmHg 71%
    03:00 +14°C° 0 mm 4 mps 749 mmHg 72%
    04:00 +13°C° 0 mm 4 mps 748 mmHg 73%
    05:00 +14°C° 0 mm 4 mps 748 mmHg 71%
    06:00 +15°C° 0 mm 4 mps 747 mmHg 69%
    07:00 +17°C° 0 mm 4 mps 747 mmHg 62%
    08:00 +19°C° 0 mm 4 mps 747 mmHg 55%
    09:00 +21°C° 0 mm 5 mps 747 mmHg 48%
    10:00 +23°C° 0 mm 5 mps 747 mmHg 41%
    11:00 +22°C° 0.1 mm 5 mps 746 mmHg 48%
    12:00 +21°C° 0.1 mm 5 mps 746 mmHg 55%
    13:00 +23°C° 0 mm 2 mps 746 mmHg 58%
    14:00 +22°C° 0 mm 3 mps 746 mmHg 61%
    15:00 +21°C° 0 mm 4 mps 745 mmHg 64%
    16:00 +21°C° 0 mm 5 mps 745 mmHg 67%
    17:00 +20°C° 0.1 mm 5 mps 745 mmHg 74%
    18:00 +17°C° 0.1 mm 5 mps 744 mmHg 81%
    19:00 +16°C° 0.1 mm 5 mps 744 mmHg 87%
    20:00 +15°C° 0.4 mm 5 mps 744 mmHg 89%
    21:00 +15°C° 0.4 mm 5 mps 744 mmHg 90%
    22:00 +14°C° 0.4 mm 5 mps 744 mmHg 91%
    23:00 +14°C° 0.1 mm 4 mps 744 mmHg 88%

    Tomorrow, 23 April, Tuesday

    Time Temperature Precipitation Wind Pressure Humidity
    00:00 +14°C° 0.1 mm 4 mps 744 mmHg 86%
    01:00 +13°C° 0.1 mm 4 mps 744 mmHg 83%
    02:00 +13°C° 0 mm 4 mps 743 mmHg 83%
    03:00 +13°C° 0 mm 4 mps 743 mmHg 82%
    04:00 +13°C° 0 mm 4 mps 743 mmHg 81%
    05:00 +14°C° 0 mm 4 mps 743 mmHg 79%
    06:00 +15°C° 0 mm 4 mps 743 mmHg 77%
    07:00 +17°C° 0 mm 4 mps 744 mmHg 76%
    08:00 +18°C° 0 mm 4 mps 744 mmHg 71%
    09:00 +19°C° 0 mm 4 mps 744 mmHg 67%
    10:00 +20°C° 0 mm 4 mps 745 mmHg 63%
    11:00 +21°C° 0 mm 3 mps 745 mmHg 63%
    12:00 +21°C° 0 mm 3 mps 745 mmHg 62%
    13:00 +21°C° 0 mm 3 mps 745 mmHg 61%
    14:00 +21°C° 0 mm 2 mps 746 mmHg 62%
    15:00 +21°C° 0 mm 2 mps 746 mmHg 64%
    16:00 +20°C° 0 mm 2 mps 746 mmHg 65%
    17:00 +19°C° 0 mm 2 mps 746 mmHg 69%
    18:00 +18°C° 0 mm 2 mps 746 mmHg 73%
    19:00 +16°C° 0 mm 2 mps 747 mmHg 78%
    20:00 +16°C° 0 mm 2 mps 748 mmHg 76%
    21:00 +16°C° 0 mm 2 mps 748 mmHg 75%
    22:00 +16°C° 0 mm 2 mps 749 mmHg 73%
    23:00 +16°C° 0 mm 2 mps 749 mmHg 71%

    Day after tomorrow, 24 April, Wednesday

    Time Temperature Precipitation Wind Pressure Humidity
    00:00 +15°C° 0 mm 2 mps 749 mmHg 69%
    01:00 +15°C° 0 mm 2 mps 750 mmHg 67%
    02:00 +14°C° 0 mm 3 mps 750 mmHg 69%
    03:00 +14°C° 0 mm 3 mps 750 mmHg 70%
    04:00 +14°C° 0 mm 3 mps 750 mmHg 72%
    05:00 +16°C° 0 mm 3 mps 750 mmHg 70%
    06:00 +17°C° 0 mm 2 mps 751 mmHg 68%
    07:00 +18°C° 0 mm 2 mps 751 mmHg 66%
    08:00 +20°C° 0 mm 2 mps 751 mmHg 59%
    09:00 +23°C° 0 mm 2 mps 752 mmHg 52%
    10:00 +25°C° 0 mm 2 mps 752 mmHg 45%
    11:00 +25°C° 0 mm 2 mps 752 mmHg 43%
    12:00 +26°C° 0 mm 2 mps 752 mmHg 41%
    13:00 +27°C° 0 mm 2 mps 752 mmHg 39%
    14:00 +26°C° 0 mm 1 mps 752 mmHg 39%
    15:00 +26°C° 0 mm 1 mps 752 mmHg 40%
    16:00 +26°C° 0 mm 1 mps 752 mmHg 40%
    17:00 +24°C° 0 mm 1 mps 752 mmHg 43%
    18:00 +22°C° 0 mm 1 mps 752 mmHg 47%
    19:00 +20°C° 0 mm 1 mps 752 mmHg 50%
    20:00 +19°C° 0 mm 2 mps 752 mmHg 52%
    21:00 +18°C° 0 mm 2 mps 753 mmHg 53%
    22:00 +18°C° 0 mm 3 mps 753 mmHg 54%
    23:00 +18°C° 0 mm 3 mps 753 mmHg 54%

    25 April, Thursday

    Time Temperature Precipitation Wind Pressure Humidity
    00:00 +17°C° 0 mm 2 mps 753 mmHg 54%
    01:00 +17°C° 0 mm 2 mps 753 mmHg 53%
    02:00 +17°C° 0 mm 2 mps 753 mmHg 51%
    03:00 +18°C° 0 mm 3 mps 753 mmHg 49%
    04:00 +18°C° 0 mm 3 mps 752 mmHg 46%
    05:00 +18°C° 0 mm 3 mps 752 mmHg 48%
    06:00 +19°C° 0 mm 3 mps 753 mmHg 49%
    07:00 +20°C° 0 mm 2 mps 753 mmHg 51%
    08:00 +24°C° 0 mm 2 mps 753 mmHg 46%
    09:00 +26°C° 0 mm 1 mps 753 mmHg 41%
    10:00 +29°C° 0 mm 1 mps 753 mmHg 36%
    11:00 +29°C° 0 mm 1 mps 753 mmHg 35%
    12:00 +29°C° 0 mm 2 mps 753 mmHg 35%
    13:00 +30°C° 0 mm 2 mps 753 mmHg 35%
    14:00 +29°C° 0.1 mm 2 mps 753 mmHg 37%
    15:00 +28°C° 0.1 mm 2 mps 752 mmHg 40%
    16:00 +27°C° 0.1 mm 2 mps 752 mmHg 43%
    17:00 +25°C° 0.1 mm 2 mps 752 mmHg 48%
    18:00 +23°C° 0.1 mm 1 mps 752 mmHg 52%
    19:00 +21°C° 0.1 mm 1 mps 752 mmHg 57%
    20:00 +20°C° 0 mm 1 mps 753 mmHg 60%
    21:00 +20°C° 0 mm 1 mps 753 mmHg 63%
    22:00 +20°C° 0 mm 1 mps 754 mmHg 66%
    23:00 +20°C° 0 mm 1 mps 753 mmHg 68%

    26 April, Friday

    Time Temperature Precipitation Wind Pressure Humidity
    00:00 +19°C° 0 mm 1 mps 753 mmHg 70%
    01:00 +19°C° 0 mm 1 mps 753 mmHg 72%
    02:00 +19°C° 0 mm 1 mps 753 mmHg 74%
    03:00 +19°C° 0 mm 1 mps 753 mmHg 75%
    04:00 +18°C° 0 mm 1 mps 753 mmHg 76%
    05:00 +19°C° 0 mm 1 mps 753 mmHg 73%
    06:00 +20°C° 0 mm 1 mps 753 mmHg 70%
    07:00 +21°C° 0 mm 1 mps 753 mmHg 66%
    08:00 +23°C° 0 mm 2 mps 754 mmHg 61%
    09:00 +24°C° 0 mm 2 mps 754 mmHg 55%
    10:00 +26°C° 0 mm 2 mps 754 mmHg 49%
    11:00 +26°C° 0 mm 2 mps 753 mmHg 48%
    12:00 +27°C° 0 mm 2 mps 753 mmHg 48%
    13:00 +27°C° 0 mm 2 mps 753 mmHg 47%
    14:00 +26°C° 0 mm 2 mps 753 mmHg 50%
    15:00 +26°C° 0 mm 2 mps 753 mmHg 53%
    16:00 +25°C° 0 mm 1 mps 752 mmHg 56%
    17:00 +23°C° 0 mm 1 mps 753 mmHg 64%
    18:00 +21°C° 0 mm 1 mps 753 mmHg 72%
    19:00 +17°C° 0 mm 0 mps 753 mmHg 80%
    20:00 +16°C° 0 mm 0 mps 753 mmHg 78%
    21:00 +16°C° 0 mm 0 mps 753 mmHg 75%
    22:00 +16°C° 0 mm 0 mps 753 mmHg 73%
    23:00 +15°C° 0 mm 0 mps 753 mmHg 73%

    27 April, Saturday

    Time Temperature Precipitation Wind Pressure Humidity
    00:00 +16°C° 0 mm 1 mps 753 mmHg 74%
    01:00 +16°C° 0 mm 1 mps 753 mmHg 74%
    02:00 +15°C° 0 mm 1 mps 753 mmHg 76%
    03:00 +15°C° 0 mm 1 mps 753 mmHg 78%
    04:00 +15°C° 0 mm 1 mps 754 mmHg 80%
    05:00 +16°C° 0 mm 1 mps 754 mmHg 77%
    06:00 +18°C° 0 mm 1 mps 754 mmHg 74%
    07:00 +19°C° 0 mm 1 mps 754 mmHg 71%
    08:00 +19°C° 0 mm 2 mps 754 mmHg 65%
    09:00 +20°C° 0 mm 3 mps 755 mmHg 59%
    10:00 +21°C° 0 mm 3 mps 755 mmHg 54%
    11:00 +21°C° 0 mm 3 mps 755 mmHg 53%
    12:00 +21°C° 0 mm 4 mps 755 mmHg 52%
    13:00 +21°C° 0 mm 4 mps 754 mmHg 51%
    14:00 +20°C° 0 mm 4 mps 754 mmHg 53%
    15:00 +20°C° 0 mm 3 mps 754 mmHg 56%
    16:00 +19°C° 0 mm 3 mps 754 mmHg 59%
    17:00 +17°C° 0 mm 2 mps 754 mmHg 69%
    18:00 +15°C° 0 mm 2 mps 754 mmHg 80%
    19:00 +13°C° 0 mm 1 mps 754 mmHg 91%
    20:00 +13°C° 0 mm 1 mps 755 mmHg 92%
    21:00 +12°C° 0 mm 1 mps 755 mmHg 93%
    22:00 +12°C° 0 mm 1 mps 755 mmHg 94%
    23:00 +12°C° 0 mm 1 mps 755 mmHg 93%
    Show more